Regional Weather Roundup
Issued by NWS

Home | Current Version | Previous Version | Graphics & Text | Print | Product List | Glossary On
Versions: 1 2 3 4 5 6 7 8 9 10 11 12 13 14 15 16 17 18 19 20 21 22 23 24 25 26 27 28 29 30 31 32 33 34 35 36 37 38 39 40 41 42 43 44 45 46 47 48 49 50
000
ASUS43 KDTX 191010
RWRMI
MICHIGAN HOURLY REGIONAL WEATHER ROUNDUP
NATIONAL WEATHER SERVICE DETROIT/PONTIAC MI
500 AM EST FRI DEC 19 2014

NOTE: "FAIR" INDICATES FEW OR NO CLOUDS BELOW 12,000 FEET WITH NO
SIGNIFICANT WEATHER AND/OR OBSTRUCTION TO VISIBILITY.

MIZ047>049-052>055-059>063-066>070-074>076-081>083-191100-
SOUTHEAST LOWER MICHIGAN

CITY           SKY/WX    TMP DP  RH WIND       PRES   REMARKS
ADRIAN         CLOUDY    29  26  89 NW6       30.21F
ALMA           CLOUDY    25  20  84 CALM      30.23S
ANN ARBOR      CLOUDY    28  26  92 N7        30.20S
BAD AXE        CLOUDY    23  20  89 W5        30.21R
DETROIT CITY   CLOUDY    29  20  69 N12       30.22S
DETROIT        CLOUDY    28  23  81 N7        30.22S
FLINT          CLOUDY    26  20  77 N6        30.23
GROSSE ILE     CLOUDY    28  25  86 N7        30.20S
HILLSDALE      CLOUDY    28  27  98 W7        30.18S FOG
HOWELL         CLOUDY    26  24  93 N3        30.20S

CITY           SKY/WX    TMP DP  RH WIND       PRES   REMARKS
JACKSON        CLOUDY    28  26  92 W3        30.19S FOG
LAMBERTVILLE   CLOUDY    32  28  86 W5        30.21S
LANSING        CLOUDY    26  23  88 N6        30.22S
LAPEER         NOT AVBL
MASON          CLOUDY    26  24  93 NE3       30.21S
MONROE         MIX PCPN  28  28 100 NE3       30.19F
MT. CLEMENS    CLOUDY    27  25  90 NW8       30.20R
PONTIAC        CLOUDY    24  20  84 N7        30.20R
PORT HOPE        N/A     29  19  66 N3        30.18S
PORT HURON     CLOUDY    27  23  86 W7        30.20S
TRI CITIES     CLOUDY    26  19  74 NW5       30.24S
$$
MIZ043>046-050>051-056>058-064>065-071>073-077>080-191100-
SOUTHWEST LOWER MICHIGAN

CITY           SKY/WX    TMP DP  RH WIND       PRES   REMARKS
BATTLE CREEK   CLOUDY    29  26  89 W3        30.21S FOG
BENTON HARBOR  CLOUDY    31  24  75 VRB5      30.23F
BIG RAPIDS     CLOUDY    23  20  88 CALM      30.22S
COLDWATER      CLOUDY    27  25  92 W8        30.20S
HOLLAND        CLEAR     25  19  78 CALM      30.25R
GRAND RAPIDS   CLOUDY    28  20  71 NW5       30.23R
KALAMAZOO      CLOUDY    29  25  85 N7        30.22S
MARSHALL       CLOUDY    27  26  94 CALM      30.20S FOG
MUSKEGON       CLEAR     21  17  84 N5        30.25S
$$
MIZ016>042-191100-
NORTHERN LOWER MICHIGAN

CITY           SKY/WX    TMP DP  RH WIND       PRES   REMARKS
ALPENA         CLEAR     14  10  84 CALM      30.23S
BEAVER ISLAND  CLEAR     13  11  94 CALM      30.24S
BELLAIRE       PTCLDY     8   6  89 CALM      30.26F
CADILLAC       FOG       14  12  92 CALM      30.20R VSB 1/2
CHARLEVOIX     CLEAR     12  10  93 CALM      30.26F
FRANKFORT      MOSUNNY   11   9  94 CALM      30.26S
GAYLORD        PTCLDY     2  -1  88 CALM      30.19S
GRAYLING       PTCLDY     2  -2  85 CALM      30.21S
HARBOR SPRINGS PTCLDY     8   5  89 CALM      30.24S
HOUGHTON LAKE  CLEAR     11   7  84 CALM      30.21S
MANISTEE       PTCLDY    10   9  92 CALM      30.26S
OSCODA         CLEAR     14  12  92 CALM      30.21S
PELLSTON       PTCLDY     0  -4  83 CALM      30.25S
TRAVERSE CITY  PTCLDY    12   9  87 CALM      30.25R
$$
MIZ007>008-015-191100-
EASTERN UPPER MICHIGAN

CITY           SKY/WX    TMP DP  RH WIND       PRES   REMARKS
KINROSS        PTCLDY    10   9  92 N5        30.24S
MACKINAC ISLAN   N/A     14  12  90 NE6       30.23S
NEWBERRY       PTCLDY    16  16  98 CALM      30.23S
S. S. MARIE    PTCLDY     9   5  84 CALM      30.22S
$$
MIZ004>006-011>014-085-191100-
CENTRAL UPPER MICHIGAN

CITY           SKY/WX    TMP DP  RH WIND       PRES   REMARKS
MANISTIQUE     CLEAR      9   8  94 CALM      30.25S
ESCANABA       PTCLDY    10   7  85 W3        30.26S
MENOMINEE      PTCLDY    16  12  86 N5        30.27S
SAWYER-GWINN   CLOUDY    22  19  89 CALM      30.23S
$$
MIZ001>003-009>011-084-191100-
WESTERN UPPER MICHIGAN

CITY           SKY/WX    TMP DP  RH WIND       PRES   REMARKS
IRON MOUNTAIN  PTCLDY     2  -3  80 W5        30.24F
HOUGHTON       CLOUDY    13   9  84 W5        30.24F
COPPER HARBOR    N/A     25  19  78 W5        30.27S
IRONWOOD       CLOUDY     3   1  92 CALM      30.23S
$$

ABBREVIATIONS USED IN REMARKS
   TC - TEMPERATURE IN CELSIUS
  WCI - WIND CHILL INDEX
   HX - HEAT INDEX
  VSB - VISIBILITY




USA.gov is the U.S. government's official web portal to all federal, state and local government web resources and services.